EDT,Max TemperatureF,Mean TemperatureF,Min TemperatureF,Max Dew PointF,MeanDew PointF,Min DewpointF,Max Humidity, Mean Humidity, Min Humidity, Max Sea Level PressureIn, Mean Sea Level PressureIn, Min Sea Level PressureIn, Max VisibilityMiles, Mean VisibilityMiles, Min VisibilityMiles, Max Wind SpeedMPH, Mean Wind SpeedMPH, Max Gust SpeedMPH,PrecipitationIn, CloudCover, Events, WindDirDegrees
2013-6-1,86,76,66,73,68,63,100,88,55,29.94,29.83,29.77,10,8,0,16,8,34,0.88,4,Fog-Rain-Thunderstorm,226
2013-6-2,75,68,60,70,67,59,100,93,62,29.81,29.74,29.68,10,10,4,17,9,31,0.24,5,Rain,208
2013-6-3,58,54,49,57,47,41,96,78,59,29.96,29.90,29.82,10,10,10,16,10,26,0.00,6,,261
2013-6-4,64,54,44,43,41,37,88,63,38,30.15,30.06,29.97,10,10,9,12,7,20,0.00,0,,263
2013-6-5,66,54,41,46,43,40,100,63,40,30.23,30.18,30.14,10,10,7,9,5,,0.00,3,,56
2013-6-6,59,55,51,59,54,43,100,94,66,30.14,30.03,29.94,10,6,2,16,7,,0.97,8,Rain,106
2013-6-7,61,57,53,60,56,54,100,97,86,29.94,29.87,29.81,10,8,5,17,10,23,0.36,8,Rain,128
2013-6-8,61,58,55,59,57,55,100,98,86,30.06,29.91,29.79,10,8,0,9,5,,0.00,8,Fog,301
2013-6-9,73,64,55,58,56,54,100,80,54,30.18,30.14,30.05,10,10,9,12,7,17,0.00,2,,249
2013-6-10,73,64,56,64,60,54,100,91,59,30.17,29.96,29.79,10,8,2,18,11,29,0.77,5,Rain,126
2013-6-11,64,60,55,64,59,55,100,100,94,29.77,29.67,29.59,10,8,2,20,11,30,0.69,8,Rain,255
2013-6-12,71,62,53,57,55,53,100,90,53,29.90,29.82,29.76,10,10,8,8,6,,0.01,6,Rain,342
2013-6-13,63,57,50,59,56,48,100,89,72,29.76,29.69,29.65,10,10,10,16,10,22,0.05,4,Rain,117
2013-6-14,74,60,48,60,52,44,100,82,42,29.92,29.82,29.75,10,8,0,13,4,21,0.00,4,Fog,313
2013-6-15,71,58,45,49,43,40,99,56,33,30.01,29.97,29.93,10,10,10,13,6,21,0.00,1,,253
2013-6-16,69,62,56,64,59,45,100,91,55,29.92,29.76,29.68,10,9,3,16,6,21,0.12,5,Rain,226
2013-6-17,70,63,55,64,60,52,100,90,68,29.96,29.86,29.79,10,10,2,12,6,,0.19,5,Rain,278
2013-6-18,69,60,52,54,50,44,100,77,41,30.04,29.97,29.93,10,10,10,13,5,23,0.05,4,Rain,57
2013-6-19,66,53,40,48,42,38,99,65,37,30.21,30.13,30.04,10,10,10,10,5,,0.00,0,,5
2013-6-20,73,59,45,48,44,38,98,61,33,30.27,30.23,30.20,10,10,10,9,4,,0.00,0,,208
2013-6-21,78,64,50,56,50,44,87,60,38,30.28,30.24,30.19,10,10,10,8,4,,0.00,0,,199
2013-6-22,83,71,60,70,63,55,100,81,51,30.18,30.10,30.04,10,9,5,12,5,16,0.08,4,Rain,162
2013-6-23,82,74,67,72,70,67,100,86,69,30.06,30.02,29.97,10,8,3,14,6,21,0.01,3,Rain,209
2013-6-24,83,76,71,71,69,65,84,74,68,30.01,29.96,29.90,10,10,10,15,10,21,0.00,1,,245
2013-6-25,80,73,66,72,69,64,100,90,69,29.91,29.83,29.76,10,8,1,13,9,23,0.38,5,Rain,247
2013-6-26,78,72,66,70,68,63,100,91,72,29.81,29.78,29.75,10,9,6,14,8,20,0.01,6,Rain,240
2013-6-27,81,72,64,73,68,65,100,84,61,29.79,29.73,29.64,10,10,6,13,6,,0.02,2,Rain,67
2013-6-28,69,62,56,68,62,57,100,99,94,29.63,29.55,29.51,10,10,5,14,7,,0.90,7,Rain,22
2013-6-29,73,66,58,64,61,59,100,94,68,29.69,29.55,29.50,10,9,0,8,2,,0.12,6,Fog-Rain,269
2013-6-30,78,66,56,63,61,57,100,85,60,29.94,29.82,29.70,10,10,8,10,3,,0.00,4,,95